WS Maaseik 1 Meer informatie WS Maaseik 1


WS Maaseik 2 Meer informatie WS Maaseik 2


Regen radar Meer informatie rain snow radar


Bezoek onze andere website:

Vorige versie
weerstation Maaseik


Bezoek ook eens deze sites:

Weerstation Geleen



Het weer levert geen direct gevaar op.    Er zijn geen waarschuwingen afgegeven.

15 daagse weersverwachting Nijmegen (NL)

  • Overzicht
  • Per uur
  • 15 dagen
  • Extra
  • Vergelijk
  • Kaarten
  • Dagkaart
  • Meer »
  • Info
  • Statistieken
  • Directe link
    Temp 6h Neerslag Wind  
 06:08     21:18    Daglengte: 15:10 Vandaag
14:00
21°
 
1
20:00
20°
 
1
 06:09     21:16    Daglengte: 15:07 Morgen
02:00
16°
 
3
08:00
16°
2.7 mm
4
14:00
19°
6.5 mm
6
warningclass
20:00
18°
3.8 mm
4
 06:11     21:14    Daglengte: 15:03 Zaterdag 07 Aug
02:00
16°
 
4
08:00
15°
2.6 mm
3
14:00
21°
2.7 mm
4
20:00
18°
7.1 mm
2
 06:12     21:13    Daglengte: 15:01 Zondag 08 Aug
02:00
15°
6.6 mm
4
08:00
15°
5.3 mm
6
Locatie info
Region: Gelderland
Latitude: 51.8413°N
Longitude: 5.8577°E
25 masl
Postcode: 6512
Temp/Neerslag /Baro Onweer/Dauwpunt
    Temp Baro 1h Neerslag Dauwpunt Wind UV Bewolking  
 06:08     21:18    Daglengte: 15:10 Vandaag
14:00
21°
1008.3 hPa
47%
15.4°
1
Windvlaag: 3 m/s
50%
15:00
21°
1007.8 hPa
24%
15.4°
2
Windvlaag: 3.1 m/s
53%
16:00
21°
1007.1 hPa
72%
15.8°
2
Windvlaag: 4 m/s
60%
17:00
21°
1006.6 hPa
74%
15.3°
2
Windvlaag: 3.7 m/s
52%
18:00
21°
1006.3 hPa
74%
14.4°
2
Windvlaag: 4 m/s
67%
19:00
20°
1005.8 hPa
73%
13.5°
2
Windvlaag: 3.8 m/s
67%
20:00
20°
1005.6 hPa
54%
14.4°
1
Windvlaag: 2.6 m/s
40%
21:00
18°
1005.4 hPa
13%
14.9°
2
Windvlaag: 2.6 m/s
11%
22:00
17°
1005.4 hPa
12%
14.7°
2
Windvlaag: 2.9 m/s
7%
23:00
17°
1004.9 hPa
12%
14.9°
2
Windvlaag: 4.4 m/s
5%
 06:09     21:16    Daglengte: 15:07 Morgen
00:00
16°
1004.5 hPa
21%
14.7°
3
Windvlaag: 5 m/s
13%
01:00
16°
1003.7 hPa
56%
14.8°
3
Windvlaag: 5.9 m/s
55%
02:00
16°
1003.2 hPa
27%
14.8°
3
Windvlaag: 7.1 m/s
64%
03:00
16°
1002.6 hPa 0.2 mm
73%
13.7°
3
Windvlaag: 7.2 m/s
38%
04:00
16°
1002.1 hPa
18%
13.5°
3
Windvlaag: 7.2 m/s
58%
05:00
16°
1001.5 hPa 0.4 mm
73%
13.8°
3
Windvlaag: 6.2 m/s
86%
06:00
16°
1001.2 hPa 1.4 mm
80%
13.9°
3
Windvlaag: 7.2 m/s
86% warningclass
07:00
16°
1001.2 hPa 0.7 mm
80%
14.5°
4
Windvlaag: 7.3 m/s
63%
08:00
16°
1001.3 hPa
82%
15.1°
4
Windvlaag: 7.2 m/s
86%
09:00
16°
1001.4 hPa 0.8 mm
82%
15.5°
4
Windvlaag: 7.3 m/s
86%
10:00
17°
1001.6 hPa 1.1 mm
82%
15.2°
4
Windvlaag: 7.5 m/s
45%
11:00
18°
1001.8 hPa 1.1 mm
82%
16.0°
5
Windvlaag: 7.7 m/s
76% warningclass
12:00
18°
1002.0 hPa 1.0 mm
82%
15.3°
5
Windvlaag: 7.5 m/s
63%
13:00
18°
1002.2 hPa 1.0 mm
82%
15.7°
5
Windvlaag: 8.4 m/s
74%
14:00
19°
1002.3 hPa 1.5 mm
82%
15.6°
6
Windvlaag: 9.6 m/s
30% warningclass
15:00
18°
1002.4 hPa 1.0 mm
82%
15.0°
6
Windvlaag: 9.5 m/s
37%
16:00
19°
1002.4 hPa 0.9 mm
82%
16.1°
6
Windvlaag: 9.5 m/s
60%
17:00
18°
1002.8 hPa 1.1 mm
79%
15.0°
6
Windvlaag: 9.4 m/s
45%
18:00
18°
1002.9 hPa 0.9 mm
71%
14.2°
5
Windvlaag: 7.9 m/s
16%
19:00
19°
1003.3 hPa
14%
13.9°
5
Windvlaag: 7 m/s
11%
20:00
18°
1003.6 hPa
14%
13.1°
4
Windvlaag: 6.7 m/s
7%
21:00
17°
1004.1 hPa
16%
12.4°
4
Windvlaag: 6.3 m/s
18%
22:00
17°
1004.5 hPa
14%
12.0°
4
Windvlaag: 6.7 m/s
4%
23:00
16°
1004.7 hPa
14%
11.9°
4
Windvlaag: 7.6 m/s
6%
 06:11     21:14    Daglengte: 15:03 Zaterdag 07 Aug
00:00
16°
1004.8 hPa
14%
11.8°
4
Windvlaag: 7.8 m/s
6%
01:00
16°
1004.8 hPa
21%
11.4°
4
Windvlaag: 7.7 m/s
11%
02:00
16°
1004.9 hPa
79%
12.0°
4
Windvlaag: 8.1 m/s
44%
03:00
15°
1004.8 hPa
82%
12.4°
3
Windvlaag: 7.7 m/s
50%
04:00
15°
1004.8 hPa 0.9 mm
82%
12.7°
3
Windvlaag: 8.2 m/s
14%
05:00
14°
1004.6 hPa
78%
12.6°
3
Windvlaag: 8.1 m/s
12%
06:00
14°
1004.4 hPa 0.9 mm
76%
12.1°
3
Windvlaag: 8.1 m/s
48%
07:00
14°
1004.3 hPa 0.9 mm
74%
12.0°
3
Windvlaag: 6.8 m/s
16%
08:00
15°
1004.3 hPa
31%
12.4°
3
Windvlaag: 5 m/s
17%
09:00
16°
1004.3 hPa
16%
12.7°
3
Windvlaag: 4.6 m/s
18%
10:00
16°
1004.0 hPa
14%
12.8°
3
Windvlaag: 3 m/s
18%
11:00
19°
1003.3 hPa
100%
10.2°
3
Windvlaag: 6.7 m/s
47%
12:00
20°
1002.9 hPa 1.4 mm
98%
9.5°
4
Windvlaag: 8.1 m/s
47%
13:00
20°
1002.4 hPa 1.2 mm
34%
9.2°
4
Windvlaag: 7.3 m/s
49%
14:00
21°
1002.0 hPa
85%
8.9°
4
Windvlaag: 7 m/s
59%
15:00
21°
1001.5 hPa 1.2 mm
44%
9.3°
4
Windvlaag: 7.2 m/s
66%
16:00
20°
1001.3 hPa 1.0 mm
100%
8.4°
4
Windvlaag: 7.7 m/s
65%
17:00
21°
1001.1 hPa 1.2 mm
100%
8.5°
4
Windvlaag: 6.8 m/s
64%
18:00
20°
1000.9 hPa 1.1 mm
100%
8.1°
3
Windvlaag: 6.5 m/s
73%
19:00
19°
1001.1 hPa 1.2 mm
100%
9.1°
3
Windvlaag: 5.4 m/s
61%
20:00
18°
1001.2 hPa 1.4 mm
100%
10.4°
2
Windvlaag: 4.2 m/s
68%
21:00
17°
1001.0 hPa 1.7 mm
93%
12.7°
2
Windvlaag: 6.6 m/s
75%
22:00
16°
1001.4 hPa 1.2 mm
78%
12.4°
2
Windvlaag: 6.4 m/s
72%
23:00
16°
1001.6 hPa 1.5 mm
100%
12.2°
3
Windvlaag: 7.6 m/s
83% warningclass
 06:12     21:13    Daglengte: 15:01 Zondag 08 Aug
00:00
16°
1001.7 hPa 2.1 mm
100%
12.2°
3
Windvlaag: 7.9 m/s
71% warningclass
01:00
15°
1001.8 hPa
90%
12.6°
4
Windvlaag: 7.8 m/s
59%
02:00
15°
1002.0 hPa
25%
12.3°
4
Windvlaag: 9.5 m/s
83%
03:00
15°
1001.9 hPa
23%
12.3°
5
Windvlaag: 10 m/s
91%
04:00
15°
1002.0 hPa 1.8 mm
81%
11.8°
5
Windvlaag: 10.1 m/s
100%
05:00
14°
1001.8 hPa 1.1 mm
100%
12.7°
5
Windvlaag: 9.7 m/s
99%
06:00
14°
1002.0 hPa 1.3 mm
100%
12.8°
5
Windvlaag: 9.3 m/s
97%
07:00
14°
1002.4 hPa 1.5 mm
100%
12.4°
6
Windvlaag: 8.8 m/s
97%
08:00
15°
1003.1 hPa
32%
12.8°
6
Windvlaag: 10.3 m/s
98%
09:00
16°
1003.8 hPa
91%
-36.3°
6
Windvlaag: 0 m/s
100%
Temp/Neerslag /Baro Onweer/Dauwpunt
    Temp Baro Neerslag Dauwpunt Wind Bewolking  
 06:08     21:18    Daglengte: 15:10 Vandaag
14:00
21°
1008.3 hPa   15.4°
1
50%
17:00
21°
1006.6 hPa   15.3°
2
52%
20:00
20°
1005.6 hPa   14.4°
1
40%
23:00
17°
1004.9 hPa   14.9°
2
5%
 06:09     21:16    Daglengte: 15:07 Morgen
02:00
16°
1003.2 hPa   14.8°
3
64%
05:00
16°
1001.5 hPa 0.6 mm 13.8°
3
86%
08:00
16°
1001.3 hPa 2.1 mm 15.1°
4
86%
11:00
18°
1001.8 hPa 3.0 mm 16.0°
5
76% warningclass
14:00
19°
1002.3 hPa 3.5 mm 15.6°
6
30% warningclass
17:00
18°
1002.8 hPa 2.9 mm 15.0°
6
45%
20:00
18°
1003.6 hPa 0.9 mm 13.1°
4
7%
23:00
16°
1004.7 hPa   11.9°
4
6%
 06:11     21:14    Daglengte: 15:03 Zaterdag 07 Aug
02:00
16°
1004.9 hPa   12.0°
4
44%
05:00
14°
1004.6 hPa 0.9 mm 12.6°
3
12%
08:00
15°
1004.3 hPa 1.7 mm 12.4°
3
17%
11:00
19°
1003.3 hPa   10.2°
3
47%
14:00
21°
1002.0 hPa 2.7 mm 8.9°
4
59%
17:00
21°
1001.1 hPa 3.4 mm 8.5°
4
64%
20:00
18°
1001.2 hPa 3.7 mm 10.4°
2
68%
23:00
16°
1001.6 hPa 4.5 mm 12.2°
3
83% warningclass
 06:12     21:13    Daglengte: 15:01 Zondag 08 Aug
02:00
15°
1002.0 hPa 2.1 mm 12.3°
4
83%
05:00
14°
1001.8 hPa 2.9 mm 12.7°
5
99%
08:00
15°
1003.1 hPa 4.1 mm 12.8°
6
98%
11:00
17°
1005.4 hPa   14.5°
7
17%
14:00
20°
1006.6 hPa 2.9 mm 15.5°
7
33%
17:00
20°
1008.9 hPa 15.4 mm 13.6°
7
1%
20:00
17°
1010.9 hPa 16.2 mm 12.0°
6
1%
23:00
15°
1013.2 hPa 16.2 mm 9.9°
5
0%
 06:14     21:11    Daglengte: 14:57 Maandag 09 Aug
02:00
13°
1014.0 hPa 16.2 mm 9.2°
5
0%
05:00
13°
1014.3 hPa 16.2 mm 9.9°
5
0%
08:00
14°
1015.3 hPa 16.2 mm 11.1°
6
0%
11:00
18°
1016.8 hPa 16.4 mm 12.5°
7
0%
14:00
19°
1017.5 hPa 17.4 mm 14.4°
7
1%
17:00
20°
1018.0 hPa 18.4 mm 14.3°
6
1%
20:00
17°
1018.7 hPa 19.2 mm 14.8°
4
1%
23:00
14°
1019.8 hPa 19.4 mm 13.4°
3
1%
 06:16     21:09    Daglengte: 14:53 Dinsdag 10 Aug
02:00
14°
1020.4 hPa 19.4 mm 13.1°
4
1%
05:00
13°
1020.4 hPa 19.4 mm 12.6°
4
0%
08:00
14°
1020.9 hPa 19.4 mm 13.6°
4
1%
11:00
18°
1021.7 hPa 19.4 mm 15.2°
5
1%
14:00
22°
1020.9 hPa 19.6 mm 15.0°
5
1%
17:00
22°
1020.3 hPa 19.7 mm 15.1°
4
1%
20:00
20°
1020.2 hPa 20.0 mm 16.3°
3
1%
23:00
16°
1020.9 hPa 20.1 mm 14.4°
1
1%
 06:17     21:07    Daglengte: 14:50 Woensdag 11 Aug
02:00
15°
1020.3 hPa 20.1 mm 13.4°
2
0%
05:00
14°
1019.7 hPa 20.1 mm 12.6°
3
0%
08:00
16°
1020.2 hPa 20.1 mm 13.5°
3
0%
11:00
21°
1020.3 hPa 20.1 mm 14.8°
4
1%
14:00
24°
1020.3 hPa 20.1 mm 14.7°
5
1%
17:00
24°
1020.2 hPa 20.4 mm 15.2°
4
0%
20:00
21°
1020.7 hPa 20.8 mm 16.7°
3
0%
23:00
17°
1022.1 hPa 20.8 mm 14.5°
2
0%
 06:19     21:05    Daglengte: 14:46 Donderdag 12 Aug
02:00
16°
1022.5 hPa 20.8 mm 13.6°
1
0%
05:00
15°
1022.3 hPa 20.9 mm 12.9°
0
0%
08:00
17°
1022.9 hPa 21.2 mm 14.5°
0
0%
11:00
22°
1023.5 hPa   16.4°
1
1%
14:00
22°
1023.4 hPa 42.7 mm 16.4°
0
1%
20:00
21°
1023.2 hPa 45.0 mm 17.7°
3
0%
 06:20     21:03    Daglengte: 14:43 Vrijdag 13 Aug
02:00
15°
1024.3 hPa 46.7 mm 13.6°
3
0%
08:00
15°
1024.0 hPa 46.7 mm 11.8°
3
0%
14:00
24°
1022.0 hPa 46.7 mm 14.9°
4
0%
20:00
22°
1019.2 hPa 46.7 mm 15.9°
4
0%
 06:22     21:01    Daglengte: 14:39 Zaterdag 14 Aug
02:00
16°
1017.8 hPa 46.7 mm 10.8°
4
0%
08:00
17°
1015.0 hPa 46.7 mm 13.7°
3
0%
14:00
28°
1011.8 hPa 46.7 mm 15.8°
3
0%
20:00
25°
1007.6 hPa 46.7 mm 15.8°
2
0%
 06:24     20:59    Daglengte: 14:35 Zondag 15 Aug
02:00
18°
1007.3 hPa 48.7 mm 17.8°
4
1%
08:00
15°
1013.7 hPa 1.3 mm 12.7°
3
64%
14:00
20°
1013.7 hPa 0.5 mm 12.8°
4
62%
20:00
19°
1013.3 hPa 0.9 mm 13.5°
2
62%
 06:25     20:57    Daglengte: 14:32 Maandag 16 Aug
02:00
15°
1013.6 hPa 0.7 mm 12.1°
2
49%
08:00
15°
1013.2 hPa 0.4 mm 12.3°
3
55%
14:00
21°
1013.9 hPa 0.6 mm 13.4°
4
60%
20:00
19°
1014.6 hPa 0.9 mm 13.6°
3
58%
 06:27     20:55    Daglengte: 14:28 Dinsdag 17 Aug
02:00
14°
1015.6 hPa 0.6 mm 11.7°
2
50%
08:00
15°
1015.7 hPa 0.2 mm 12.5°
3
52%
14:00
21°
1016.0 hPa 0.7 mm 13.6°
4
59%
20:00
19°
1015.8 hPa 0.5 mm 13.9°
2
59%
 06:28     20:53    Daglengte: 14:25 Woensdag 18 Aug
02:00
15°
1016.2 hPa 0.4 mm 12.6°
2
48%
08:00
16°
1015.8 hPa 0.7 mm 13.4°
3
60%
14:00
22°
1015.6 hPa 0.8 mm 14.1°
3
59%
20:00
19°
1015.4 hPa 1.3 mm 14.2°
2
55%
 06:30     20:51    Daglengte: 14:21 Donderdag 19 Aug
02:00
15°
1016.0 hPa 1.7 mm 12.6°
2
49%
08:00
15°
1015.5 hPa 1.5 mm 13.2°
2
56%
14:00
21°
1015.1 hPa 0.6 mm 14.1°
2
59%
20:00
19°
1014.9 hPa 1.2 mm 14.2°
2
56%
 06:32     20:49    Daglengte: 14:17 Vrijdag 20 Aug
02:00
14°
1015.3 hPa 0.3 mm 12.2°
1
45%
08:00
15°
1014.9 hPa 0.4 mm 12.7°
2
50%
  CAPE Lifted Index Hail Supercell Tornado SRH 3km CL BTM PRES CL TOP PRES Swiss DWD icon SMHI TS
 06:08     21:18    Daglengte: 15:10 Vandaag
14:00 178 J/kg 0.3 K 0 % 0 % 0 % 0 m²/s² 0 0 0.99 3
15:00 175 J/kg 0.3 K 0 % 0 % 0 % 0 m²/s² 0 0 1.08 3
16:00 189 J/kg 0.0 K 0 % 0 % 0 % 0 m²/s² 0 0 0.84 3
17:00 188 J/kg 0.0 K 0 % 0 % 0 % 0 m²/s² 0 0 1.08 3
18:00 222 J/kg -0.4 K 0 % 0 % 0 % 0 m²/s² 0 0 0.89 3
19:00 200 J/kg -0.1 K 0 % 0 % 0 % 0 m²/s² 0 0 1.34 3
20:00 177 J/kg -0.1 K 0 % 0 % 0 % 0 m²/s² 0 0 1.88 3
21:00 167 J/kg 0.0 K 0 % 0 % 0 % 0 m²/s² 0 0 2.61 1
22:00 139 J/kg 0.2 K 0 % 0 % 0 % 0 m²/s² 0 0 2.9 1
23:00 101 J/kg 0.5 K 0 % 0 % 0 % 0 m²/s² 0 0 2.69 2
 06:09     21:16    Daglengte: 15:07 Morgen
00:00 79 J/kg 0.3 K 0 % 0 % 0 % 0 m²/s² 0 0 2.04 2
01:00 48 J/kg 0.1 K 0 % 0 % 0 % 0 m²/s² 0 0 2.08 3
02:00 68 J/kg -0.6 K 0 % 0 % 0 % 0 m²/s² 0 0 1.02 3
03:00 39 J/kg 0.6 K 0 % 0 % 0 % 0 m²/s² 0 0 1.89 61
04:00 0 J/kg -0.2 K 0 % 0 % 0 % 0 m²/s² 0 0 0.7 3
05:00 0 J/kg 0.6 K 0 % 0 % 0 % 0 m²/s² 0 0 0.87 3
06:00 0 J/kg 0.0 K 0 % 0 % 0 % 0 m²/s² 0 0 0.12 95
07:00 0 J/kg -1.7 K 0 % 0 % 0 % 0 m²/s² 0 0 -0.77 80
08:00 139 J/kg -1.7 K 0 % 0 % 0 % 0 m²/s² 0 0 -0.95 3
09:00 358 J/kg -1.3 K 0 % 0 % 0 % 0 m²/s² 0 0 -0.07 80
10:00 182 J/kg -0.1 K 0 % 0 % 0 % 0 m²/s² 0 0 1.7 80
11:00 260 J/kg -0.4 K 0 % 0 % 0 % 0 m²/s² 0 0 1.52 95
12:00 449 J/kg -1.1 K 0 % 0 % 0 % 0 m²/s² 0 0 0.94 80
13:00 218 J/kg 0.0 K 0 % 0 % 0 % 0 m²/s² 0 0 1.86 80
14:00 182 J/kg 0.1 K 0 % 0 % 0 % 0 m²/s² 0 0 1.96 95
15:00 142 J/kg 0.3 K 0 % 0 % 0 % 0 m²/s² 0 0 2.34 80
16:00 221 J/kg -0.6 K 0 % 0 % 0 % 0 m²/s² 0 0 0.09 3
17:00 486 J/kg -1.9 K 0 % 0 % 0 % 0 m²/s² 0 0 -1.3 3
18:00 657 J/kg -2.8 K 0 % 0 % 0 % 0 m²/s² 0 0 0.2 80
19:00 137 J/kg -0.4 K 0 % 0 % 0 % 0 m²/s² 0 0 3.02 2
20:00 128 J/kg -0.3 K 0 % 0 % 0 % 0 m²/s² 0 0 2.52 2
21:00 95 J/kg -0.1 K 0 % 0 % 0 % 0 m²/s² 0 0 3.41 2
22:00 47 J/kg 0.9 K 0 % 0 % 0 % 0 m²/s² 0 0 4.68 2
23:00 13 J/kg 1.5 K 0 % 0 % 0 % 0 m²/s² 0 0 5.58 2
 06:11     21:14    Daglengte: 15:03 Zaterdag 07 Aug
00:00 0 J/kg 2.2 K 0 % 0 % 0 % 0 m²/s² 0 0 6.49 2
01:00 0 J/kg 3.4 K 0 % 0 % 0 % 0 m²/s² 0 0 7.45 2
02:00 0 J/kg 4.3 K 0 % 0 % 0 % 0 m²/s² 0 0 7.78 61
03:00 0 J/kg 4.7 K 0 % 0 % 0 % 0 m²/s² 0 0 7.91 3
04:00 0 J/kg 5.2 K 0 % 0 % 0 % 0 m²/s² 0 0 8.5 80
05:00 0 J/kg 4.9 K 0 % 0 % 0 % 0 m²/s² 0 0 8.11 80
06:00 0 J/kg 4.6 K 0 % 0 % 0 % 0 m²/s² 0 0 7.9 3
07:00 0 J/kg 3.9 K 0 % 0 % 0 % 0 m²/s² 0 0 6.84 2
08:00 0 J/kg 3.1 K 0 % 0 % 0 % 0 m²/s² 0 0 5.83 2
09:00 15 J/kg 2.0 K 0 % 0 % 0 % 0 m²/s² 0 0 4.28 1
10:00 41 J/kg 1.2 K 0 % 0 % 0 % 0 m²/s² 0 0 3.27 2
11:00 82 J/kg 0.7 K 0 % 0 % 0 % 0 m²/s² 0 0 2.59 2
12:00 128 J/kg 0.5 K 0 % 0 % 0 % 0 m²/s² 0 0 2.21 2
13:00 149 J/kg 0.5 K 0 % 0 % 0 % 0 m²/s² 0 0 2.15 2
14:00 108 J/kg 0.5 K 0 % 0 % 0 % 0 m²/s² 0 0 2.51 3
15:00 156 J/kg 0.0 K 0 % 0 % 0 % 0 m²/s² 0 0 1.89 2
16:00 182 J/kg -0.2 K 0 % 0 % 0 % 0 m²/s² 0 0 1.81 80
17:00 152 J/kg -0.1 K 0 % 0 % 0 % 0 m²/s² 0 0 1.97 80
18:00 200 J/kg -0.5 K 0 % 0 % 0 % 0 m²/s² 0 0 1.72 80
19:00 372 J/kg -1.4 K 0 % 0 % 0 % 0 m²/s² 0 0 0.61 80
20:00 495 J/kg -2.0 K 0 % 0 % 0 % 0 m²/s² 0 0 0.22 80
21:00 410 J/kg -1.5 K 0 % 0 % 0 % 0 m²/s² 0 0 0.15 3
22:00 275 J/kg -1.3 K 0 % 0 % 0 % 0 m²/s² 0 0 -0.28 3
23:00 391 J/kg -1.3 K 0 % 0 % 0 % 0 m²/s² 0 0 0.08 95
 06:12     21:13    Daglengte: 15:01 Zondag 08 Aug
00:00 457 J/kg -1.7 K 0 % 0 % 0 % 0 m²/s² 0 0 -0.77 95
01:00 336 J/kg -1.4 K 0 % 0 % 0 % 0 m²/s² 0 0 -0.95 2
02:00 218 J/kg -1.6 K 0 % 0 % 0 % 0 m²/s² 0 0 -1.06 3
03:00 47 J/kg -1.0 K 0 % 0 % 0 % 0 m²/s² 0 0 -0.49 3
04:00 29 J/kg -0.3 K 0 % 0 % 0 % 0 m²/s² 0 0 0.48 3
05:00 0 J/kg 0.1 K 0 % 0 % 0 % 0 m²/s² 0 0 0.73 61
06:00 0 J/kg 0.9 K 0 % 0 % 0 % 0 m²/s² 0 0 1.41 61
07:00 0 J/kg 0.2 K 0 % 0 % 0 % 0 m²/s² 0 0 1.16 61
08:00 90 J/kg -0.6 K 0 % 0 % 0 % 0 m²/s² 0 0 0.03 3
09:00 0 J/kg 0.0 K 0 % 0 % 0 % 0 m²/s² 0 0 13.83 3
Temp Baro Wind Neerslag
  EWN Forecast EWN WRFDA DWD ICON FMI HIRLAM MET Norway GFS
 06:08     21:18    Daglengte: 15:10 Vandaag
14:00 21.0° 1008.3 hPa 1.4 m/s 0.0 mm 22.3° 1007.4 hPa 0.9 m/s 0.1 mm 21.4° 1008.5 hPa 1.8 m/s -1.8 mm 21.0° 1008.1 hPa 1.4 m/s 0.0 mm 22.5° 1008.0 hPa 1.7 m/s
17:00 21.4° 1006.6 hPa 1.7 m/s 0.0 mm 22.9° 1005.7 hPa 1.1 m/s 1.5 mm 21.2° 1006.6 hPa 2.1 m/s 0.1 mm 21.3° 1006.3 hPa 1.7 m/s 0.0 mm 22.8° 1006.5 hPa 2.4 m/s
20:00 20.1° 1005.6 hPa 1.3 m/s 0.0 mm 22.6° 1004.6 hPa 1.0 m/s 1.8 mm 19.9° 1005.6 hPa 1.3 m/s 0.2 mm 20.1° 1005.5 hPa 1.2 m/s 0.0 mm 20.5° 1005.0 hPa 2.3 m/s
23:00 16.7° 1004.9 hPa 2.2 m/s 0.0 mm 16.9° 1003.8 hPa 3.0 m/s 1.9 mm 16.1° 1005.5 hPa 2.0 m/s 0.0 mm 17.8° 1004.9 hPa 1.8 m/s 0.0 mm 16.6° 1004.6 hPa 3.0 m/s
 06:09     21:16    Daglengte: 15:07 Morgen
02:00 16.5° 1003.2 hPa 3.0 m/s 0.0 mm 15.5° 1002.6 hPa 3.4 m/s 1.9 mm 16.6° 1003.3 hPa 2.8 m/s 0.0 mm 17.0° 1003.0 hPa 2.5 m/s 0.0 mm 14.9° 1003.1 hPa 3.8 m/s
05:00 15.7° 1001.5 hPa 3.2 m/s 0.6 mm 16.0° 1000.9 hPa 2.5 m/s 2.3 mm 15.6° 1001.6 hPa 3.3 m/s 0.3 mm 16.2° 1000.9 hPa 2.9 m/s 0.0 mm 15.3° 1001.9 hPa 5.1 m/s
08:00 16.0° 1001.3 hPa 3.9 m/s 2.1 mm 16.2° 1000.4 hPa 4.5 m/s 5.0 mm 16.1° 1001.6 hPa 3.3 m/s 2.7 mm 16.1° 1000.3 hPa 3.9 m/s 0.0 mm 15.9° 1001.9 hPa 5.6 m/s
11:00 17.6° 1001.8 hPa 4.8 m/s 3.0 mm 18.9° 1001.1 hPa 5.7 m/s 7.1 mm 17.8° 1002.2 hPa 4.2 m/s 1.6 mm 17.3° 1000.8 hPa 4.8 m/s 0.0 mm 18.0° 1002.4 hPa 6.6 m/s
14:00 18.7° 1002.3 hPa 5.5 m/s 3.5 mm 22.0° 1001.3 hPa 7.0 m/s 7.6 mm 19.0° 1002.7 hPa 4.9 m/s 2.3 mm 18.2° 1001.0 hPa 5.4 m/s 0.0 mm 18.8° 1002.6 hPa 8.0 m/s
17:00 18.4° 1002.8 hPa 5.8 m/s 2.9 mm 19.9° 1001.2 hPa 6.8 m/s 8.6 mm 20.1° 1003.2 hPa 4.5 m/s 0.5 mm 17.7° 1001.9 hPa 6.3 m/s 0.0 mm 20.3° 1003.1 hPa 7.3 m/s
20:00 18.3° 1003.6 hPa 4.1 m/s 0.9 mm 20.5° 1001.8 hPa 6.2 m/s 9.9 mm 19.5° 1003.8 hPa 3.1 m/s 0.3 mm 17.3° 1003.1 hPa 4.4 m/s 0.0 mm 18.1° 1003.6 hPa 4.5 m/s
23:00 16.4° 1004.7 hPa 3.8 m/s 0.0 mm 15.3° 1003.3 hPa 3.8 m/s 10.1 mm 17.0° 1004.8 hPa 2.5 m/s 0.0 mm 16.6° 1004.7 hPa 4.4 m/s 0.0 mm 14.3° 1004.8 hPa 3.6 m/s
 06:11     21:14    Daglengte: 15:03 Zaterdag 07 Aug
02:00 15.5° 1004.9 hPa 3.7 m/s 0.0 mm 13.4° 1002.8 hPa 4.3 m/s 10.1 mm 15.8° 1005.1 hPa 2.4 m/s 0.2 mm 15.8° 1005.0 hPa 3.9 m/s 0.0 mm 13.3° 1005.0 hPa 4.1 m/s
05:00 14.1° 1004.6 hPa 3.3 m/s 0.9 mm 11.8° 1003.1 hPa 3.9 m/s 10.1 mm 14.4° 1004.4 hPa 1.6 m/s 0.8 mm 13.7° 1004.9 hPa 3.4 m/s 0.0 mm 12.4° 1005.0 hPa 3.6 m/s
08:00 14.7° 1004.3 hPa 2.5 m/s 1.7 mm 15.1° 1002.8 hPa 4.8 m/s 10.1 mm 15.2° 1004.3 hPa 1.9 m/s 0.5 mm 14.6° 1005.1 hPa 3.7 m/s 0.0 mm 14.5° 1004.7 hPa 3.1 m/s
11:00 18.6° 1003.3 hPa 3.1 m/s 0.0 mm 19.1° 1002.5 hPa 5.0 m/s 10.1 mm 18.9° 1003.7 hPa 2.7 m/s 0.0 mm 18.2° 1003.9 hPa 4.0 m/s
14:00 20.7° 1002.0 hPa 3.9 m/s 2.7 mm 21.5° 1001.2 hPa 5.2 m/s 10.1 mm 20.8° 1002.5 hPa 3.1 m/s 0.1 mm 20.0° 1003.2 hPa 5.4 m/s
17:00 20.9° 1001.1 hPa 3.8 m/s 3.4 mm 22.5° 1000.4 hPa 4.2 m/s 10.1 mm 20.9° 1001.4 hPa 2.6 m/s 0.7 mm 21.0° 1002.4 hPa 5.4 m/s
20:00 18.5° 1001.2 hPa 2.4 m/s 3.7 mm 20.8° 999.9 hPa 3.5 m/s 10.1 mm 18.4° 1001.3 hPa 2.3 m/s 1.1 mm 17.9° 1002.5 hPa 4.7 m/s
23:00 16.0° 1001.6 hPa 3.2 m/s 4.5 mm 15.7° 1000.0 hPa 3.0 m/s 10.1 mm 16.0° 1001.7 hPa 2.6 m/s 1.5 mm 15.3° 1003.1 hPa 4.7 m/s
 06:12     21:13    Daglengte: 15:01 Zondag 08 Aug
02:00 15.3° 1002.0 hPa 4.2 m/s 2.1 mm 15.4° 1000.3 hPa 3.3 m/s 10.6 mm 15.5° 1002.0 hPa 3.9 m/s 1.5 mm 14.0° 1003.4 hPa 5.1 m/s
05:00 14.4° 1001.8 hPa 4.6 m/s 2.9 mm 13.2° 1000.6 hPa 4.2 m/s 11.0 mm 14.8° 1001.6 hPa 4.2 m/s 0.4 mm 13.2° 1003.5 hPa 6.2 m/s
08:00 14.8° 1003.1 hPa 6.0 m/s 4.1 mm 14.9° 1001.3 hPa 5.9 m/s 11.2 mm 15.3° 1002.9 hPa 5.8 m/s 0.5 mm 13.7° 1004.6 hPa 7.0 m/s
11:00 16.7° 1005.4 hPa 6.9 m/s 0.0 mm 16.9° 1005.3 hPa 6.7 m/s 0.0 mm 15.0° 1006.2 hPa 8.1 m/s 13.6 mm
14:00 19.6° 1006.6 hPa 7.2 m/s 2.9 mm 19.9° 1006.5 hPa 7.1 m/s 0.2 mm 17.8° 1007.5 hPa 7.7 m/s 14.0 mm
17:00 19.6° 1008.9 hPa 6.8 m/s 15.4 mm 19.6° 1008.9 hPa 6.8 m/s 15.4 mm
20:00 17.4° 1010.9 hPa 5.7 m/s 16.2 mm 17.4° 1010.9 hPa 5.7 m/s 16.2 mm
23:00 14.9° 1013.2 hPa 5.1 m/s 16.2 mm 14.9° 1013.2 hPa 5.1 m/s 16.2 mm
 06:14     21:11    Daglengte: 14:57 Maandag 09 Aug
02:00 13.3° 1014.0 hPa 5.0 m/s 16.2 mm 13.3° 1014.0 hPa 5.0 m/s 16.2 mm
05:00 12.5° 1014.3 hPa 5.3 m/s 16.2 mm 12.5° 1014.3 hPa 5.3 m/s 16.2 mm
08:00 13.8° 1015.3 hPa 5.7 m/s 16.2 mm 13.8° 1015.3 hPa 5.7 m/s 16.2 mm
11:00 18.2° 1016.8 hPa 7.0 m/s 16.4 mm 18.2° 1016.8 hPa 7.0 m/s 16.4 mm
14:00 18.9° 1017.5 hPa 6.6 m/s 17.4 mm 18.9° 1017.5 hPa 6.6 m/s 17.4 mm
17:00 19.6° 1018.0 hPa 5.8 m/s 18.4 mm 19.6° 1018.0 hPa 5.8 m/s 18.4 mm
20:00 17.3° 1018.7 hPa 3.7 m/s 19.2 mm 17.3° 1018.7 hPa 3.7 m/s 19.2 mm
23:00 14.4° 1019.8 hPa 3.4 m/s 19.4 mm 14.4° 1019.8 hPa 3.4 m/s 19.4 mm
 06:16     21:09    Daglengte: 14:53 Dinsdag 10 Aug
02:00 13.7° 1020.4 hPa 3.7 m/s 19.4 mm 13.7° 1020.4 hPa 3.7 m/s 19.4 mm
05:00 13.1° 1020.4 hPa 3.6 m/s 19.4 mm 13.1° 1020.4 hPa 3.6 m/s 19.4 mm
08:00 14.4° 1020.9 hPa 4.1 m/s 19.4 mm 14.4° 1020.9 hPa 4.1 m/s 19.4 mm
11:00 17.9° 1021.7 hPa 5.0 m/s 19.4 mm 17.9° 1021.7 hPa 5.0 m/s 19.4 mm
14:00 21.7° 1020.9 hPa 5.4 m/s 19.6 mm 21.7° 1020.9 hPa 5.4 m/s 19.6 mm
17:00 22.4° 1020.3 hPa 4.2 m/s 19.7 mm 22.4° 1020.3 hPa 4.2 m/s 19.7 mm
20:00 19.8° 1020.2 hPa 2.7 m/s 20.0 mm 19.8° 1020.2 hPa 2.7 m/s 20.0 mm
23:00 16.2° 1020.9 hPa 1.4 m/s 20.1 mm 16.2° 1020.9 hPa 1.4 m/s 20.1 mm
 06:17     21:07    Daglengte: 14:50 Woensdag 11 Aug
02:00 15.0° 1020.3 hPa 1.8 m/s 20.1 mm 15.0° 1020.3 hPa 1.8 m/s 20.1 mm
05:00 14.1° 1019.7 hPa 2.6 m/s 20.1 mm 14.1° 1019.7 hPa 2.6 m/s 20.1 mm
08:00 15.9° 1020.2 hPa 2.6 m/s 20.1 mm 15.9° 1020.2 hPa 2.6 m/s 20.1 mm
11:00 20.8° 1020.3 hPa 4.1 m/s 20.1 mm 20.8° 1020.3 hPa 4.1 m/s 20.1 mm
14:00 23.6° 1020.3 hPa 4.8 m/s 20.1 mm 23.6° 1020.3 hPa 4.8 m/s 20.1 mm
17:00 23.9° 1020.2 hPa 4.3 m/s 20.4 mm 23.9° 1020.2 hPa 4.3 m/s 20.4 mm
20:00 21.0° 1020.7 hPa 2.8 m/s 20.8 mm 21.0° 1020.7 hPa 2.8 m/s 20.8 mm
23:00 17.2° 1022.1 hPa 1.8 m/s 20.8 mm 17.2° 1022.1 hPa 1.8 m/s 20.8 mm
 06:19     21:05    Daglengte: 14:46 Donderdag 12 Aug
02:00 15.9° 1022.5 hPa 0.6 m/s 20.8 mm 15.9° 1022.5 hPa 0.6 m/s 20.8 mm
05:00 15.0° 1022.3 hPa 0.2 m/s 20.9 mm 15.0° 1022.3 hPa 0.2 m/s 20.9 mm
08:00 17.1° 1022.9 hPa 0.3 m/s 21.2 mm 17.1° 1022.9 hPa 0.3 m/s 21.2 mm
11:00 21.8° 1023.5 hPa 0.5 m/s 21.2 mm 21.8° 1023.5 hPa 0.5 m/s 21.2 mm
14:00 22.3° 1023.4 hPa 0.2 m/s 21.5 mm 22.3° 1023.4 hPa 0.2 m/s 21.5 mm
20:00 21.0° 1023.2 hPa 3.5 m/s 23.4 mm 21.0° 1023.2 hPa 3.5 m/s 23.4 mm
 06:20     21:03    Daglengte: 14:43 Vrijdag 13 Aug
02:00 15.2° 1024.3 hPa 3.5 m/s 23.4 mm 15.2° 1024.3 hPa 3.5 m/s 23.4 mm
08:00 14.8° 1024.0 hPa 3.3 m/s 23.4 mm 14.8° 1024.0 hPa 3.3 m/s 23.4 mm
14:00 24.4° 1022.0 hPa 4.0 m/s 23.4 mm 24.4° 1022.0 hPa 4.0 m/s 23.4 mm
20:00 22.0° 1019.2 hPa 3.8 m/s 23.4 mm 22.0° 1019.2 hPa 3.8 m/s 23.4 mm
 06:22     21:01    Daglengte: 14:39 Zaterdag 14 Aug
02:00 16.0° 1017.8 hPa 3.7 m/s 23.4 mm 16.0° 1017.8 hPa 3.7 m/s 23.4 mm
08:00 17.0° 1015.0 hPa 3.1 m/s 23.4 mm 17.0° 1015.0 hPa 3.1 m/s 23.4 mm
14:00 27.7° 1011.8 hPa 3.2 m/s 23.4 mm 27.7° 1011.8 hPa 3.2 m/s 23.4 mm
20:00 25.4° 1007.6 hPa 2.4 m/s 23.4 mm 25.4° 1007.6 hPa 2.4 m/s 23.4 mm
 06:24     20:59    Daglengte: 14:35 Zondag 15 Aug
02:00 18.3° 1007.3 hPa 4.1 m/s 24.5 mm 18.3° 1007.3 hPa 4.1 m/s 24.5 mm
08:00 15.1° 1013.7 hPa 2.6 m/s 1.3 mm
14:00 20.5° 1013.7 hPa 3.5 m/s 0.5 mm
20:00 18.6° 1013.3 hPa 2.2 m/s 0.9 mm
 06:25     20:57    Daglengte: 14:32 Maandag 16 Aug
02:00 14.6° 1013.6 hPa 1.8 m/s 0.7 mm
08:00 14.8° 1013.2 hPa 2.7 m/s 0.4 mm
14:00 21.2° 1013.9 hPa 4.2 m/s 0.6 mm
20:00 18.7° 1014.6 hPa 2.5 m/s 0.9 mm
 06:27     20:55    Daglengte: 14:28 Dinsdag 17 Aug
02:00 14.2° 1015.6 hPa 2.2 m/s 0.6 mm
08:00 14.9° 1015.7 hPa 2.9 m/s 0.2 mm
14:00 21.1° 1016.0 hPa 3.9 m/s 0.7 mm
20:00 19.0° 1015.8 hPa 2.1 m/s 0.5 mm
 06:28     20:53    Daglengte: 14:25 Woensdag 18 Aug
02:00 14.9° 1016.2 hPa 1.9 m/s 0.4 mm
08:00 15.6° 1015.8 hPa 2.6 m/s 0.7 mm
14:00 21.6° 1015.6 hPa 3.4 m/s 0.8 mm
20:00 19.1° 1015.4 hPa 2.2 m/s 1.3 mm
 06:30     20:51    Daglengte: 14:21 Donderdag 19 Aug
02:00 15.0° 1016.0 hPa 1.8 m/s 1.7 mm
08:00 15.4° 1015.5 hPa 1.7 m/s 1.5 mm
14:00 21.1° 1015.1 hPa 2.5 m/s 0.6 mm
20:00 19.0° 1014.9 hPa 2.0 m/s 1.2 mm
 06:32     20:49    Daglengte: 14:17 Vrijdag 20 Aug
02:00 14.3° 1015.3 hPa 1.3 m/s 0.3 mm
08:00 14.7° 1014.9 hPa 1.7 m/s 0.4 mm
FMI Hirlam - 7.5 km EWN WRFDA - 12 km DWD ICON - 7 km GFS - 25 km Basiskaart






























































Updatetijd (Europe/Brussels) Resolutie Lengte Stap
FMI Hirlam 14:00, 20:00, 02:00, 08:00 7.5 km 49h 1h
EWN WRFDA 04:15, 10:15, 16:15, 22:15 12 km 73h 1h
DWD ICON 11:45, 17:45, 23:45, 05:45 7 km 75h 1h
GFS 08:30, 14:30, 20:30, 02:30 25 km 237h 3h
30+ mm
25-30 mm
20-25 mm
15-20 mm
10-15 mm
6-10 mm
4-6 mm
2-4 mm
1-2 mm
0.5-1 mm
0.2-0.5 mm
0.1-0.2 mm
30+ mm
25-30 mm
20-25 mm
15-20 mm
10-15 mm
6-10 mm
4-6 mm
2-4 mm
1-2 mm
0.5-1 mm
0.2-0.5 mm
0.1-0.2 mm
Sneeuwval
Natte sneeuw
Hagel
Vorst
30+ mm
25-30 mm
20-25 mm
15-20 mm
10-15 mm
6-10 mm
4-6 mm
2-4 mm
1-2 mm
0.5-1 mm
0.2-0.5 mm
0.1-0.2 mm
Sneeuwval
Natte sneeuw
Hagel
Vorst
Onweer
50 mm
40 mm
30 mm
26 mm
22 mm
18 mm
14 mm
10 mm
9 mm
8 mm
7 mm
6 mm
5 mm
4.5 mm
4 mm
3.5 mm
3 mm
2.5 mm
2 mm
1.5 mm
1 mm
0.8 mm
0.6 mm
0.4 mm
0.2 mm
0.05 mm
35°
30°
25°
20°
15°
10°
-5°
-10°
-15°
-20°
-25°
-30°
-35°
33> m/s
29 m/s
25 m/s
21 m/s
17 m/s
14 m/s
11 m/s
8 m/s
5 m/s
3 m/s
0 m/s
2600 J/kg
2400 J/kg
2200 J/kg
2000 J/kg
1800 J/kg
1600 J/kg
1400 J/kg
1200 J/kg
1000 J/kg
800 J/kg
600 J/kg
400 J/kg
200 J/kg
70 dBZ
65 dBZ
60 dBZ
55 dBZ
50 dBZ
45 dBZ
40 dBZ
35 dBZ
30 dBZ
25 dBZ
20 dBZ
15 dBZ
10 dBZ
5 dBZ
-1 K
-2 K
-3 K
-4 K
-5 K
-6 K
-7 K
-8 K
-9 K
950 m²/s²
900 m²/s²
850 m²/s²
800 m²/s²
750 m²/s²
700 m²/s²
650 m²/s²
600 m²/s²
550 m²/s²
500 m²/s²
450 m²/s²
400 m²/s²
350 m²/s²
300 m²/s²
250 m²/s²
200 m²/s²
150 m²/s²
100 m²/s²
46 m/s
44 m/s
42 m/s
40 m/s
38 m/s
36 m/s
34 m/s
32 m/s
30 m/s
28 m/s
26 m/s
24 m/s
22 m/s
20 m/s
16 m/s
12 m/s
8 m/s
4 m/s
30 m/s
28 m/s
26 m/s
24 m/s
22 m/s
20 m/s
18 m/s
16 m/s
14 m/s
12 m/s
10 m/s
8 m/s
6 m/s
4 m/s
2 m/s
3.0
2.8
2.6
2.4
2.2
2.0
1.8
1.6
1.4
1.2
1.0
0.8
0.6
0.4
0.2
15
14
13
12
11
10
9
8
7
6
5
4
3
2
1
90%
80%
70%
60%
50%